EW7338 Weather Reports


time (UTC)temp
C
wind
direction
speed
KPH
gust
KPH
rain 1hr
cm
rain 24hr
cm
rain mn
cm
humidity
%
barometer
mb
20260507224615 13 124 0.0 1.6 0.00 0.76 0.43 92 1002.9
20260507223027 13 93 0.0 6.4 0.00 0.76 0.43 90 1002.7
20260507221600 14 88 1.6 8.0 0.00 0.76 0.43 89 1002.5
20260507220024 14 160 3.2 8.0 0.00 0.76 0.43 88 1002.6
20260507214603 14 94 1.6 8.0 0.00 0.76 0.43 90 1002.5
20260507213026 13 117 0.0 3.2 0.00 0.76 0.43 94 1002.6
20260507211626 13 108 0.0 4.8 0.00 0.76 0.43 93 1002.6
20260507210031 13 104 3.2 6.4 0.00 0.76 0.43 94 1002.4
20260507204601 12 147 0.0 6.4 0.00 0.76 0.43 96 1002.5
20260507203021 12 150 3.2 6.4 0.05 0.76 0.43 94 1002.4
20260507201609 12 122 0.0 6.4 0.05 0.76 0.43 96 1002.4
20260507200014 12 104 4.8 8.0 0.05 0.76 0.43 96 1002.9
20260507194543 12 131 0.0 6.4 0.05 0.79 0.43 97 1003.2
20260507193005 12 152 0.0 1.6 0.00 0.71 0.38 97 1003.3
20260507191535 12 154 0.0 1.6 0.05 0.71 0.38 97 1003.6
20260507190005 12 191 0.0 4.8 0.05 0.71 0.38 96 1003.5
20260507184531 12 124 0.0 1.6 0.10 0.71 0.38 96 1003.8
20260507183059 12 115 0.0 1.6 0.13 0.71 0.38 96 1003.8
20260507181526 12 93 0.0 0.0 0.08 0.69 0.33 96 1003.8
20260507180056 12 110 0.0 1.6 0.23 0.69 0.33 96 1003.6
20260507174514 12 358 0.0 0.0 0.20 0.64 0.28 96 1003.7
20260507173043 13 117 0.0 0.0 0.23 0.61 0.25 96 1003.6
20260507171514 13 103 0.0 0.0 0.23 0.61 0.25 94 1003.8
20260507170037 13 143 0.0 1.6 0.08 0.46 0.10 93 1003.6
20260507164507 14 58 0.0 0.0 0.05 0.46 0.08 92 1003.5
20260507163039 14 360 0.0 0.0 0.00 0.41 0.03 88 1003.5
20260507161510 14 356 0.0 0.0 0.00 0.41 0.03 89 1003.6
20260507160043 14 356 0.0 0.0 0.00 0.41 0.03 87 1003.8
20260507154513 14 51 0.0 0.0 0.00 0.41 0.03 87 1003.9
20260507153045 14 51 0.0 0.0 0.00 0.41 0.03 87 1003.9
20260507151515 14 19 0.0 0.0 0.00 0.41 0.03 86 1003.9
20260507150046 14 39 0.0 0.0 0.00 0.41 0.03 86 1003.9
20260507144519 14 39 0.0 0.0 0.00 0.43 0.03 88 1003.9
20260507143049 14 39 0.0 0.0 0.00 0.43 0.03 88 1003.7
20260507141519 14 37 0.0 0.0 0.00 0.43 0.03 87 1003.7
20260507140104 14 39 0.0 0.0 0.00 0.43 0.03 87 1003.4
20260507134520 14 11 0.0 0.0 0.00 0.43 0.03 89 1004.0
20260507024626 17 347 0.0 0.0 0.15 0.23 0.23 94 1004.1
20260507023026 17 210 0.0 4.8 0.05 0.13 0.13 92 1004.0
20260507021616 18 163 0.0 9.7 0.00 0.08 0.08 90 1003.8
20260507020031 18 199 4.8 11.3 0.00 0.08 0.08 89 1003.6
20260507014616 18 207 1.6 8.0 0.00 0.08 0.08 89 1003.2
20260507013026 18 181 1.6 9.7 0.00 0.08 0.08 88 1003.0
20260507011559 18 159 1.6 12.9 0.00 0.08 0.08 88 1003.2
20260507010028 18 226 0.0 11.3 0.00 0.08 0.08 88 1003.5
20260507004559 18 134 0.0 1.6 0.00 0.08 0.08 87 1003.3
20260507003029 18 274 0.0 6.4 0.00 0.08 0.08 86 1003.0
20260507001606 18 191 0.0 4.8 0.00 0.08 0.08 85 1002.7
20260507000030 19 150 0.0 1.6 0.00 0.08 0.08 83 1002.8
20260506234602 20 146 0.0 6.4 0.00 0.08 0.08 81 1002.8
20260506233030 20 195 1.6 11.3 0.00 0.08 0.08 81 1002.9
20260506231602 20 208 1.6 14.5 0.00 0.08 0.08 81 1002.5
20260506230033 20 225 4.8 11.3 0.00 0.08 0.08 80 1002.8